Location: ROBOsky.com Wild Flower Ridge Observatory
(43.9736°N, 79.9739°W)
Time: 01:29:43
(UTC-04:00)

USA 129 - Visible Passes

Search period start: 29 August 2016 00:00
Search period end: 08 September 2016 00:00
Orbit: 241 x 674 km, 97.5° (Epoch: 24 April)

Date Brightness Start Highest point End Pass type
(mag) Time Alt. Az. Time Alt. Az. Time Alt. Az.
29 Aug 3.0 05:25:43 15° SE 05:26:34 28° ENE 05:27:56 10° N visible
30 Aug 2.5 06:04:10 12° SW 06:04:58 17° W 06:06:06 10° NW visible
31 Aug 4.4 05:16:00 10° ESE 05:17:05 17° ENE 05:18:16 10° NNE visible
01 Sep 1.5 05:53:43 10° S 05:55:07 35° W 05:56:44 10° NNW visible
02 Sep 5.1 05:06:33 10° E 05:07:10 11° ENE 05:07:48 10° NE visible
03 Sep 1.0 05:43:13 10° SSE 05:44:51 89° NE 05:46:41 10° NNW visible
05 Sep 2.9 05:32:29 10° SSE 05:34:10 38° ENE 05:36:00 10° N visible
06 Sep 2.7 06:10:12 10° SSW 06:11:42 22° W 06:13:19 10° NW visible
07 Sep 4.4 05:21:29 10° SE 05:23:01 21° ENE 05:24:40 10° NNE visible
